[[{"header":{"parameterUnit":"m.s-1","parameterCategory":1,"la1":30.2991,"la2":30.254,"lo1":-89.0895,"lo2":-89.0444,"dy":0.0017,"dx":0.0017,"nx":28,"ny":28,"refTime":"2025-03-02T09:00:00:Z","depth":0,"parameterNumber":2,"parameterNumberName":"U-component_of_WINDS"},"data":[0,0,0,0,0,0,0,0,0,0,0,0,0,0,0,0,0,0,0,0,0,0,0,0,0,0,0,0,0,0,0,0,0,0,0,0,0,0,0,0,0,0,0,0,0,0,0,0,0,0,0,0,0,0,0,0,0,0,-3.3068,-3.3068,0,-3.3054,-3.3054,-3.3054,-3.2922,-3.2919,-3.2916,-3.2912,-3.29,-3.2903,-3.2906,0,0,0,0,0,0,0,0,0,0,0,0,0,-3.2981,-3.2984,-3.3068,-3.3068,-3.3068,-3.3054,-3.3054,-3.3054,-3.2923,-3.2919,-3.2915,-3.2911,-3.2899,-3.2903,-3.2906,0,0,0,0,0,0,0,0,0,0,0,0,0,-3.2999,-3.2984,-3.3068,-3.3,-3.2994,-3.3054,-3.3054,-3.3054,-3.2924,-3.2919,-3.2914,-3.2909,-3.2898,-3.2902,-3.2906,-3.3031,0,0,-3.2919,-3.2921,0,0,0,0,0,0,0,0,-3.2998,-3.3002,-3.301,-3.3005,-3.2998,-3.2985,-3.3019,-3.3046,-3.2925,-3.2951,-3.2912,-3.2907,-3.2932,-3.2933,-3.2942,-3.303,-3.303,-3.2919,-3.2922,-3.2923,-3.2925,0,0,0,0,0,0,0,-3.2997,-3.3002,-3.3062,-3.3011,-3.3003,-3.2971,-3.2968,-3.3024,-3.2969,-3.2948,-3.2938,-3.2938,-3.2928,-3.2938,-3.2941,-3.3029,-3.2919,-3.2923,-3.2925,-3.2927,-3.322,-3.3225,0,0,0,0,0,0,-3.3005,-3.3002,-3.3063,-3.3062,-3.2986,-3.2977,-3.2973,-3.2994,-3.2968,-3.296,-3.2943,-3.2932,-3.2934,-3.2936,-3.294,-3.3084,-3.2923,-3.2927,-3.293,-3.3214,-3.3221,-3.3227,0,0,0,0,0,0,-3.3003,-3.3012,-3.3063,-3.3029,-3.3033,-3.2984,-3.3008,-3.2997,-3.3006,-3.2964,-3.2954,-3.2963,-3.293,-3.2934,-3.3009,-3.3081,-3.2929,-3.2933,-3.3208,-3.3216,-3.3224,-3.3373,0,0,0,0,0,0,-3.3002,-3.3012,-3.3058,-3.3031,-3.3036,-3.3133,-3.3012,-3.3,-3.3014,-3.3,-3.2981,-3.2973,-3.2926,-3.3004,-3.3013,-3.3084,-3.2936,-3.3201,-3.3212,-3.3221,-3.3362,-3.3385,-3.3406,0,0,0,0,0,-3.2999,-3.3101,-3.3061,-3.3069,-3.3093,-3.3137,-3.314,-3.3084,-3.302,-3.3066,-3.304,-3.2973,-3.3072,-3.3012,-3.3022,-3.3096,-3.3197,-3.3209,-3.322,-3.3352,-3.3381,-3.3405,0,0,0,0,0,0,-3.3138,-3.3096,-3.3052,-3.3148,-3.3147,-3.3115,-3.3172,-3.3116,-3.3134,-3.3121,-3.3051,-3.3048,-3.3134,-3.3122,-3.3056,-3.3215,-3.3123,-3.3137,-3.322,-3.3247,-3.3268,-3.3269,-3.294,0,0,0,0,0,-3.318,-3.3219,-3.3181,-3.3269,-3.3271,-3.3222,-3.324,-3.3197,-3.3193,-3.3192,-3.3171,-3.3171,-3.3201,-3.3223,-3.3249,-3.3359,-3.3354,-3.3415,-3.3437,-3.3455,-3.3468,-3.3526,-3.3553,-3.3266,-3.3266,-3.3265,0,0,-3.3266,-3.3249,-3.3278,-3.3297,-3.3291,-3.3334,-3.3223,-3.3273,-3.3304,-3.32,-3.3269,-3.3254,-3.3249,-3.3343,-3.3383,-3.3336,-3.3547,-3.347,-3.3485,-3.3489,-3.3541,-3.3569,-3.3593,-3.3274,-3.3272,-3.3271,0,0,-3.3446,-3.3437,-3.351,-3.3507,-3.35,-3.3466,-3.3484,-3.3461,-3.3446,-3.3515,-3.3438,-3.3475,-3.3529,-3.3529,-3.3536,-3.3718,-3.3658,-3.3728,-3.3843,-3.3901,-3.3923,-3.3943,-3.4008,-3.4032,-3.3742,-3.3742,-3.3742,0,-3.3555,-3.3616,-3.3554,-3.361,-3.3621,-3.3529,-3.3602,-3.3602,-3.3605,-3.3615,-3.3562,-3.3629,-3.3619,-3.3711,-3.3756,-3.3765,-3.3783,-3.373,-3.3925,-3.3944,-3.3961,-3.4023,-3.4047,-3.3751,-3.375,-3.3749,-3.3748,0,-3.375,-3.3794,-3.3854,-3.3859,-3.3876,-3.3941,-3.389,-3.3915,-3.3871,-3.3844,-3.3916,-3.3901,-3.3923,-3.3941,-3.3899,-3.4028,-3.3999,-3.3937,-3.3843,-3.3999,-3.4055,-3.4078,-3.3763,-3.376,-3.3758,-3.3755,0,0,-3.4016,-3.3987,-3.401,-3.4011,-3.3997,-3.403,-3.4091,-3.4112,-3.4135,-3.414,-3.419,-3.4239,-3.4181,-3.4189,-3.4146,-3.4197,-3.4342,-3.4128,-3.4126,-3.4168,-3.4484,-3.4531,-3.4559,-3.4302,-3.4306,-3.4309,-3.4484,0,-3.4189,-3.4291,-3.4238,-3.4346,-3.4386,-3.43,-3.4353,-3.4351,-3.4328,-3.4359,-3.4332,-3.4368,-3.4289,-3.4294,-3.434,-3.4314,-3.4404,-3.4301,-3.4348,-3.435,-3.4351,-3.4588,-3.4637,-3.4803,-3.4506,-3.4509,-3.4512,0,-3.4404,-3.4419,-3.4532,-3.4511,-3.4526,-3.4575,-3.459,-3.4621,-3.4617,-3.4596,-3.4606,-3.4551,-3.461,-3.4518,-3.4598,-3.4529,-3.4545,-3.4536,-3.4541,-3.4543,-3.444,-3.4596,-3.4854,-3.4879,-3.4546,-3.4543,-3.4541,0,-3.4587,-3.4635,-3.4708,-3.4712,-3.469,-3.4726,-3.4719,-3.471,-3.4726,-3.474,-3.475,-3.4771,-3.4783,-3.4801,-3.4753,-3.469,-3.484,-3.4743,-3.4825,-3.4827,-3.486,-3.4858,-3.5124,-3.4871,-3.4871,-3.4871,-3.487,0,-3.4786,-3.4858,-3.479,-3.4836,-3.4915,-3.4854,-3.4934,-3.4917,-3.491,-3.4951,-3.4878,-3.4918,-3.4853,-3.4887,-3.4851,-3.4923,-3.4929,-3.4914,-3.4904,-3.4921,-3.4923,-3.493,-3.4917,-3.4877,-3.4876,-3.4874,-3.4873,0,-3.5002,-3.496,-3.5035,-3.5008,-3.5003,-3.5063,-3.504,-3.5081,-3.5053,-3.5106,-3.5115,-3.5071,-3.5108,-3.5062,-3.5094,-3.507,-3.5169,-3.5141,-3.517,-3.5162,-3.5246,-3.5239,-3.5525,-3.556,-3.5286,-3.5288,-3.529,0,-3.5131,-3.5185,-3.5165,-3.5187,-3.5184,-3.5221,-3.5237,-3.518,-3.52,-3.52,-3.5242,-3.5272,-3.5293,-3.5355,-3.5327,-3.5351,-3.5323,-3.5422,-3.5327,-3.5342,-3.5325,-3.5322,-3.5327,-3.5442,-3.5445,-3.5448,-3.545,0,-3.5365,-3.5342,-3.5368,-3.5388,-3.541,-3.5423,-3.543,-3.5453,-3.5393,-3.542,-3.5456,-3.5472,-3.5506,-3.5537,-3.5554,-3.5546,-3.5489,-3.5481,-3.55,-3.5518,-3.5533,-3.5526,-3.5223,-3.5474,-3.5471,-3.547,-3.5468,-3.5467,-3.5541,-3.5586,-3.5578,-3.5611,-3.561,-3.5619,-3.5657,-3.5634,-3.5663,-3.5686,-3.565,-3.5696,-3.5692,-3.5709,-3.5708,-3.5743,-3.5701,-3.573,-3.5737,-3.5745,-3.5758,-3.5528,-3.5746,-3.5746,-3.5745,-3.5744,-3.5744,0,-3.5771,-3.5763,-3.5793,-3.5806,-3.5832,-3.5776,-3.5781,-3.5807,-3.5848,-3.5849,-3.5871,-3.5914,-3.5944,-3.5918,-3.5943,-3.5977,-3.5951,-3.5985,-3.5982,-3.5981,-3.5795,-3.5775,-3.6006,-3.6006,-3.6006,-3.6006,-3.6005,-3.6005,-3.5893,-3.5965,-3.5941,-3.6013,-3.6003,-3.6048,-3.6056,-3.6064,-3.6064,-3.6115,-3.614,-3.6123,-3.6114,-3.6138,-3.6163,-3.6155,-3.6168,-3.6211,-3.6194,-3.602,-3.5994,-3.597,-3.5951,-3.6215,-3.6215,-3.6377,-3.6379,-3.638]},{"header":{"parameterUnit":"m.s-1","parameterCategory":1,"la1":30.2991,"la2":30.254,"lo1":-89.0895,"lo2":-89.0444,"dy":0.0017,"dx":0.0017,"nx":28,"ny":28,"refTime":"2025-03-02T09:00:00:Z","depth":0,"parameterNumber":3,"parameterNumberName":"V-component_of_WINDS"},"data":[0,0,0,0,0,0,0,0,0,0,0,0,0,0,0,0,0,0,0,0,0,0,0,0,0,0,0,0,0,0,0,0,0,0,0,0,0,0,0,0,0,0,0,0,0,0,0,0,0,0,0,0,0,0,0,0,0,0,-2.237,-2.2372,0,-2.2489,-2.2491,-2.2492,-2.2502,-2.25,-2.2499,-2.2498,-2.2616,-2.262,-2.2625,0,0,0,0,0,0,0,0,0,0,0,0,0,-2.2148,-2.2152,-2.237,-2.2372,-2.2373,-2.2489,-2.2491,-2.2492,-2.2502,-2.25,-2.2499,-2.2497,-2.2615,-2.262,-2.2625,0,0,0,0,0,0,0,0,0,0,0,0,0,-2.2254,-2.2154,-2.237,-2.2392,-2.2395,-2.2489,-2.2491,-2.2493,-2.2502,-2.25,-2.2498,-2.2497,-2.2613,-2.2619,-2.2626,-2.2704,0,0,-2.2646,-2.2648,0,0,0,0,0,0,0,0,-2.2248,-2.2262,-2.2387,-2.2391,-2.2395,-2.2479,-2.2456,-2.2563,-2.2503,-2.2462,-2.2498,-2.2496,-2.2572,-2.2581,-2.2608,-2.271,-2.2715,-2.2646,-2.265,-2.2653,-2.2655,0,0,0,0,0,0,0,-2.224,-2.2257,-2.2417,-2.2389,-2.2394,-2.2395,-2.2408,-2.2476,-2.2526,-2.2465,-2.2466,-2.248,-2.2573,-2.2602,-2.2611,-2.2716,-2.2646,-2.2652,-2.2656,-2.2658,-2.2888,-2.2891,0,0,0,0,0,0,-2.2229,-2.225,-2.2413,-2.2421,-2.2315,-2.2401,-2.2415,-2.2454,-2.2525,-2.2534,-2.2482,-2.248,-2.2591,-2.2603,-2.2615,-2.2712,-2.2653,-2.2659,-2.2663,-2.2886,-2.2889,-2.2891,0,0,0,0,0,0,-2.2224,-2.2244,-2.2409,-2.2336,-2.2357,-2.2406,-2.245,-2.2457,-2.2485,-2.2538,-2.2546,-2.2502,-2.259,-2.2606,-2.2682,-2.2716,-2.2662,-2.2668,-2.2884,-2.2887,-2.289,-2.2906,0,0,0,0,0,0,-2.2218,-2.2242,-2.2273,-2.2337,-2.2361,-2.2475,-2.2452,-2.2461,-2.2497,-2.2496,-2.2559,-2.2567,-2.259,-2.2672,-2.2689,-2.2724,-2.2673,-2.2881,-2.2885,-2.2889,-2.2902,-2.2909,-2.2915,0,0,0,0,0,-2.221,-2.2272,-2.2275,-2.2294,-2.2401,-2.2477,-2.2491,-2.2517,-2.25,-2.2531,-2.2564,-2.2565,-2.271,-2.268,-2.2698,-2.2736,-2.2879,-2.2884,-2.2889,-2.2899,-2.2908,-2.2915,0,0,0,0,0,0,-2.2209,-2.2281,-2.2284,-2.2369,-2.2417,-2.2479,-2.2519,-2.2525,-2.2578,-2.2574,-2.2603,-2.2617,-2.2693,-2.2722,-2.2688,-2.2816,-2.2792,-2.2801,-2.2794,-2.2802,-2.2808,-2.28,-2.2678,0,0,0,0,0,-2.2219,-2.2276,-2.2335,-2.2403,-2.2428,-2.2469,-2.2503,-2.2519,-2.2569,-2.2589,-2.2629,-2.2677,-2.2733,-2.2769,-2.2824,-2.2906,-2.292,-2.2941,-2.2948,-2.2952,-2.296,-2.3006,-2.3016,-2.2908,-2.2908,-2.2908,0,0,-2.224,-2.2286,-2.232,-2.2405,-2.2444,-2.2501,-2.2486,-2.2547,-2.259,-2.2598,-2.2673,-2.2704,-2.2759,-2.2839,-2.2876,-2.2866,-2.2993,-2.2959,-2.2962,-2.2967,-2.3012,-2.3022,-2.3031,-2.2911,-2.291,-2.291,0,0,-2.2307,-2.2347,-2.2409,-2.2449,-2.2509,-2.2537,-2.2551,-2.2612,-2.2633,-2.2709,-2.2717,-2.2767,-2.2863,-2.2903,-2.2935,-2.3017,-2.302,-2.3034,-2.3067,-2.3111,-2.312,-2.3128,-2.3157,-2.3167,-2.3041,-2.3041,-2.3041,0,-2.2325,-2.2412,-2.244,-2.2502,-2.2539,-2.255,-2.2613,-2.265,-2.2724,-2.2748,-2.2736,-2.2857,-2.2895,-2.2985,-2.3005,-2.3031,-2.3048,-2.3027,-2.3117,-2.3125,-2.3132,-2.3161,-2.3172,-2.3043,-2.3043,-2.3042,-2.3042,0,-2.2431,-2.2492,-2.2534,-2.2608,-2.2649,-2.2711,-2.2747,-2.2785,-2.2797,-2.2826,-2.2902,-2.2949,-2.3013,-2.3035,-2.3047,-2.3127,-2.3118,-2.3111,-2.3088,-2.3144,-2.3171,-2.3182,-2.3045,-2.3044,-2.3044,-2.3043,0,0,-2.2501,-2.2589,-2.2604,-2.2638,-2.2705,-2.2752,-2.2813,-2.2878,-2.291,-2.296,-2.3013,-2.3094,-2.3088,-2.3125,-2.3141,-2.318,-2.3243,-2.3168,-2.317,-2.3181,-2.3333,-2.3338,-2.335,-2.3245,-2.3247,-2.3249,-2.3328,0,-2.2575,-2.2687,-2.2714,-2.2809,-2.2866,-2.2878,-2.2931,-2.2978,-2.3006,-2.3057,-2.3087,-2.3144,-2.3132,-2.3154,-2.3193,-2.3227,-2.3273,-2.3221,-2.3293,-2.3295,-2.3279,-2.3364,-2.337,-2.3443,-2.3339,-2.3341,-2.3342,0,-2.2677,-2.2732,-2.2833,-2.2894,-2.2918,-2.2966,-2.3027,-2.3076,-2.3129,-2.3146,-2.3188,-2.32,-2.3264,-2.3238,-2.3326,-2.329,-2.332,-2.3341,-2.3345,-2.3352,-2.3322,-2.3375,-2.3467,-2.3478,-2.3359,-2.3358,-2.3356,0,-2.2718,-2.2817,-2.289,-2.2918,-2.2991,-2.3024,-2.3055,-2.3106,-2.3143,-2.3196,-2.322,-2.3279,-2.3312,-2.3357,-2.3384,-2.3363,-2.347,-2.3446,-2.3486,-2.3485,-2.3508,-2.3506,-2.3607,-2.3528,-2.3528,-2.3527,-2.3527,0,-2.2799,-2.286,-2.291,-2.2955,-2.3024,-2.3054,-2.3121,-2.3152,-2.3197,-2.3248,-2.3262,-2.3309,-2.3343,-2.3394,-2.3416,-2.3486,-2.35,-2.3515,-2.3521,-2.3515,-2.3513,-2.3535,-2.3531,-2.353,-2.353,-2.3529,-2.3529,0,-2.2856,-2.2892,-2.2973,-2.3035,-2.3052,-2.31,-2.3153,-2.3196,-2.3225,-2.3289,-2.3305,-2.335,-2.3411,-2.3444,-2.352,-2.3535,-2.3613,-2.3615,-2.3596,-2.3598,-2.3636,-2.3632,-2.3755,-2.3772,-2.3681,-2.3682,-2.3682,0,-2.2905,-2.2953,-2.3021,-2.3057,-2.3089,-2.3146,-2.3184,-2.3215,-2.3254,-2.3318,-2.3354,-2.3416,-2.3468,-2.3565,-2.3604,-2.3662,-2.3666,-2.3705,-2.3674,-2.3667,-2.3666,-2.3663,-2.3668,-2.371,-2.3711,-2.3711,-2.3712,0,-2.2989,-2.3004,-2.3059,-2.3121,-2.3167,-2.3216,-2.3265,-2.3293,-2.3332,-2.3375,-2.3439,-2.3479,-2.3558,-2.3619,-2.3681,-2.3712,-2.3718,-2.3721,-2.3734,-2.3728,-2.3715,-2.3723,-2.361,-2.3718,-2.3718,-2.3717,-2.3717,-2.3717,-2.3044,-2.3087,-2.3142,-2.3203,-2.3243,-2.3289,-2.3333,-2.3368,-2.3422,-2.3489,-2.3504,-2.3571,-2.3622,-2.3706,-2.3739,-2.3791,-2.3783,-2.3801,-2.3806,-2.381,-2.3811,-2.3706,-2.3802,-2.3802,-2.3802,-2.3802,-2.3802,0,-2.3128,-2.3164,-2.322,-2.3289,-2.3337,-2.334,-2.3394,-2.3434,-2.3494,-2.3541,-2.3593,-2.3666,-2.3726,-2.3769,-2.383,-2.3863,-2.3868,-2.3878,-2.3876,-2.3883,-2.3815,-2.3798,-2.3874,-2.3874,-2.3874,-2.3874,-2.3874,-2.3874,-2.3177,-2.3251,-2.3273,-2.3366,-2.3402,-2.3469,-2.35,-2.3542,-2.358,-2.3662,-2.3712,-2.3741,-2.3787,-2.3851,-2.3906,-2.3917,-2.3939,-2.3949,-2.396,-2.3896,-2.3888,-2.3881,-2.3865,-2.3954,-2.3954,-2.4024,-2.4025,-2.4026]}]]